Wind_Speed
9 10 11 11 11 12 13 13 13 12 12 12 12 12 11 12 12 12 12 12 12 11 11 10 10 10 10 9 8 8 7 7 6 5 5 5 4 4 4 3 3 3 4 4
8 9 10 10 11 11 12 12 12 12 12 12 12 12 12 12 12 12 13 13 13 12 11 11 11 10 11 10 9 9 8 7 7 6 6 6 5 5 5 4 4 4 4 5
8 8 9 9 10 9 10 11 11 11 11 12 12 13 12 12 12 12 12 13 13 12 12 11 11 11 11 11 10 9 9 8 8 7 6 6 5 5 5 5 5 5 5 6
7 8 9 8 9 8 9 11 12 11 10 11 12 12 12 12 12 12 12 12 12 12 13 12 11 11 12 12 11 10 10 10 9 8 7 6 6 5 5 5 6 6 6 6
6 7 8 8 8 8 9 10 10 10 10 10 10 11 11 12 12 13 12 12 12 13 13 12 11 12 12 12 12 11 11 11 10 9 8 7 7 6 5 6 6 6 6 7
5 6 7 7 8 8 9 10 9 9 9 10 10 10 9 10 11 12 12 12 13 13 13 12 12 12 12 12 12 11 11 10 10 10 9 9 8 7 7 7 7 7 8 8
6 6 6 7 8 8 9 9 10 10 10 8 8 9 7 9 11 12 12 11 12 13 13 12 12 12 12 11 12 11 11 11 11 10 10 10 9 9 9 8 8 8 9 9
6 6 7 7 7 8 8 9 9 9 9 8 8 8 7 8 10 11 10 10 11 13 13 12 12 12 12 12 12 12 11 11 11 11 11 11 10 10 10 10 9 9 10 11
5 6 7 8 7 7 8 8 8 8 8 8 8 8 8 8 9 9 10 10 10 11 12 12 11 11 11 11 12 12 12 12 12 12 12 12 12 11 11 11 11 11 11 11
4 5 6 8 7 7 7 8 8 7 7 7 7 8 7 8 8 8 9 10 10 11 11 11 11 11 11 11 12 12 12 12 12 12 12 12 12 12 12 12 11 11 12 12
4 5 5 7 7 6 6 7 8 8 7 8 8 8 8 8 8 8 8 9 9 10 11 11 11 11 12 12 12 12 13 13 12 12 12 13 13 13 13 13 13 12 12 13
6 6 6 6 7 7 7 7 7 8 8 9 9 8 9 8 8 8 8 8 8 10 11 12 12 12 12 12 12 12 13 13 13 13 13 13 14 14 14 14 15 14 14 15
7 7 7 7 7 7 6 7 7 7 9 9 10 8 9 9 8 8 8 8 8 8 10 11 11 12 12 12 13 13 13 13 13 13 14 14 15 15 16 16 15 15 16 16
8 8 8 7 7 7 6 6 7 8 8 8 8 8 8 8 8 8 9 8 8 9 9 10 11 11 12 12 13 13 14 14 14 14 15 15 16 16 16 16 16 16 16 16
10 9 8 7 7 8 8 7 8 8 7 7 7 8 7 8 8 8 8 9 9 10 10 11 11 12 13 13 13 14 14 15 15 15 15 16 16 16 16 16 16 16 16 16
11 10 9 9 8 8 9 8 8 9 8 8 8 8 8 9 9 8 9 9 10 11 12 13 13 13 13 13 13 14 14 16 16 15 15 16 16 16 16 16 16 17 17 17
12 12 11 11 10 10 8 8 8 8 9 10 10 9 11 10 10 9 9 10 10 11 12 12 12 13 14 13 14 14 15 15 15 15 16 17 17 17 17 17 18 18 19 19
14 13 12 12 13 13 10 10 10 9 9 9 10 11 11 11 11 10 10 10 11 12 12 12 13 13 13 14 14 15 15 16 16 17 17 17 18 18 18 18 19 19 19 19
16 15 14 14 14 13 11 12 11 11 10 10 10 9 10 11 11 11 11 11 12 14 14 13 14 15 15 14 15 15 16 16 17 18 18 19 19 19 19 19 20 20 20 20
18 17 17 16 16 14 12 12 12 12 10 10 10 10 10 11 12 11 12 12 12 13 13 14 15 16 16 15 16 16 16 17 17 18 19 20 20 20 20 21 21 22 22 22
19 19 19 17 16 15 13 13 13 13 11 11 12 12 12 12 12 11 12 12 12 13 13 14 15 16 16 17 17 18 18 18 18 19 19 20 20 21 21 22 23 24 24 24
21 20 20 19 18 16 14 15 15 14 13 13 14 14 14 14 13 12 12 13 14 15 16 16 17 17 18 19 19 19 18 19 20 20 21 22 22 23 23 23 24 24 25 25
22 21 21 20 19 17 16 17 16 16 16 15 15 15 15 16 16 15 15 15 16 17 18 18 19 19 19 20 20 20 20 21 21 22 22 23 23 24 24 25 25 25 26 26
23 22 22 22 20 19 19 18 18 18 17 17 16 16 16 17 18 17 17 17 18 19 20 20 20 20 21 21 21 22 22 23 23 24 24 24 24 25 26 26 27 27 28 28
23 22 22 22 21 21 21 20 20 20 20 19 18 18 18 18 18 19 19 19 20 21 21 21 21 21 21 22 22 23 24 24 25 26 26 26 26 27 27 28 28 29 29 30
23 23 24 23 22 23 22 22 22 21 21 20 20 20 20 19 20 20 21 21 22 22 22 22 22 23 23 24 24 25 26 26 27 27 28 28 28 29 29 29 29 29 30 30
Wind_Direction
197 202 205 204 209 210 211 215 221 216 211 215 218 220 219 219 220 218 216 214 214 215 215 215 216 216 216 220 227 232 237 239 239 240 245 248 257 263 268 281 299 313 321 328
196 204 205 214 214 207 206 212 216 214 211 216 219 220 218 215 217 218 218 216 212 214 216 219 221 214 218 221 229 233 236 240 241 241 244 249 259 268 264 272 285 294 304 313
197 198 202 203 206 208 204 207 211 213 213 215 216 215 216 214 217 215 216 215 213 217 216 218 221 219 218 222 227 230 237 239 240 240 243 250 257 267 269 274 279 284 294 305
195 195 200 202 201 203 206 208 211 215 216 215 214 213 216 220 217 217 220 218 217 216 216 219 222 222 222 226 230 233 236 236 237 240 246 252 257 260 272 280 284 287 291 300
193 196 196 199 197 201 206 203 208 218 218 218 219 218 217 221 220 217 219 218 214 214 217 222 225 225 226 230 233 236 233 234 238 242 246 252 253 254 267 279 285 289 293 296
193 196 199 198 198 202 206 208 213 216 214 217 218 217 215 218 216 215 215 214 213 215 215 221 225 225 227 231 234 236 236 237 241 243 246 253 250 254 264 274 281 287 292 295
198 197 191 195 202 201 206 213 210 210 212 213 215 220 218 212 215 217 218 214 213 213 214 221 225 226 230 232 233 235 237 239 242 246 247 251 251 256 262 270 279 285 289 292
193 196 195 192 197 200 204 210 207 209 211 214 216 216 212 209 211 213 215 213 212 213 215 220 226 229 231 231 231 232 235 238 241 245 248 250 252 257 264 270 276 281 286 290
194 188 195 194 200 203 207 209 209 210 213 215 216 213 207 208 209 210 212 214 213 213 214 219 225 231 232 230 231 231 236 239 243 247 249 250 251 257 264 270 275 279 283 287
190 190 193 193 194 195 206 213 210 214 215 215 216 210 209 208 209 211 213 215 218 221 221 222 225 232 232 232 232 233 239 244 245 248 248 251 255 257 263 269 274 278 282 286
194 199 194 195 196 204 211 215 216 220 227 224 221 219 217 214 217 219 217 221 226 231 227 223 226 230 232 233 233 240 244 246 246 249 249 253 256 258 262 268 274 279 283 285
209 208 208 205 210 217 220 217 218 224 230 230 231 226 229 226 228 225 223 224 228 232 228 226 229 232 234 234 240 245 247 250 250 251 252 258 260 261 265 270 274 278 282 284
220 219 219 216 218 223 227 223 223 226 230 234 237 230 231 232 232 225 224 226 233 235 229 228 228 232 234 238 242 245 249 252 255 254 258 262 264 266 267 270 273 275 279 281
228 228 230 233 236 232 232 233 236 235 235 236 238 237 235 237 235 231 231 236 241 240 233 230 228 232 237 240 244 248 252 255 257 257 261 262 265 268 269 271 273 275 278 279
230 230 234 238 241 240 236 238 238 241 241 242 242 244 245 242 240 240 241 245 247 244 241 238 236 239 243 246 249 252 255 257 259 260 262 263 266 268 271 273 273 276 278 279
229 227 232 239 246 245 238 239 240 241 245 249 250 246 248 251 250 249 248 246 246 246 243 243 241 244 249 252 254 256 260 260 260 260 263 265 268 270 271 272 274 276 277 279
229 230 234 237 242 242 241 243 248 247 250 255 259 258 255 256 260 260 254 250 250 250 248 243 245 247 249 253 257 260 262 261 260 262 266 268 269 271 271 272 275 278 280 281
232 232 237 241 242 242 247 253 259 263 262 259 260 260 260 258 261 262 257 254 250 250 251 249 252 252 251 255 259 261 259 260 262 264 268 270 271 273 272 274 277 279 282 283
235 237 241 245 246 246 244 252 262 266 266 267 267 266 262 258 257 260 260 257 252 251 254 254 255 256 257 259 261 262 260 262 265 267 270 272 274 275 275 276 278 280 282 283
237 240 244 247 249 246 247 251 257 262 265 266 268 268 267 265 266 264 260 258 255 254 258 259 258 258 259 263 265 266 263 266 268 270 271 273 276 277 277 278 279 280 281 282
237 241 243 249 253 250 248 250 255 260 267 266 266 267 268 268 269 266 264 263 265 266 268 268 266 263 262 265 266 267 266 268 270 270 271 273 275 277 278 278 279 280 281 282
241 243 245 250 255 256 254 255 258 262 263 264 265 263 266 267 267 267 268 270 269 268 269 270 270 269 267 266 267 268 268 269 269 270 272 276 278 279 279 280 280 281 281 281
241 245 248 252 256 257 258 258 259 260 262 264 266 266 266 267 268 271 271 271 269 270 270 271 271 272 271 269 268 269 270 271 272 273 276 278 279 280 280 281 281 281 283 284
241 244 248 251 255 258 260 260 260 261 264 265 265 268 267 267 269 272 272 270 270 270 272 272 273 273 273 272 270 270 270 272 275 277 277 278 279 280 280 281 283 284 284 285
242 245 249 252 256 258 258 260 261 262 265 267 268 267 266 267 270 272 273 273 273 273 272 273 273 273 273 274 273 273 274 275 276 277 279 280 281 282 282 283 283 284 285 285
241 244 247 249 252 255 257 258 260 262 263 265 266 267 268 267 269 271 272 272 272 273 273 273 273 274 275 275 274 275 276 278 279 279 279 280 282 282 282 284 284 285 286 286
Height
5848 5850 5851 5853 5854 5856 5858 5860 5862 5863 5865 5866 5868 5870 5872 5873 5875 5877 5879 5881 5882 5884 5886 5887 5889 5890 5891 5892 5893 5894 5894 5894 5895 5895 5895 5895 5895 5895 5894 5894 5893 5893 5892 5891
5848 5849 5850 5851 5853 5854 5856 5858 5860 5861 5863 5864 5866 5868 5870 5871 5873 5874 5876 5879 5880 5882 5884 5885 5887 5888 5889 5890 5891 5892 5892 5893 5893 5893 5894 5894 5893 5893 5893 5892 5892 5891 5891 5890
5847 5849 5849 5850 5851 5853 5855 5856 5858 5859 5861 5862 5864 5866 5868 5869 5871 5872 5874 5876 5878 5880 5881 5883 5885 5886 5887 5888 5889 5890 5891 5891 5891 5892 5892 5892 5892 5891 5891 5891 5890 5890 5889 5888
5846 5847 5848 5850 5851 5852 5854 5855 5857 5858 5859 5861 5863 5864 5866 5867 5869 5870 5872 5873 5875 5877 5879 5880 5882 5883 5885 5886 5887 5888 5888 5889 5890 5890 5890 5890 5890 5890 5890 5889 5889 5888 5887 5887
5846 5846 5848 5849 5850 5851 5852 5853 5855 5856 5857 5859 5860 5862 5864 5865 5866 5868 5870 5871 5873 5875 5876 5878 5880 5881 5882 5883 5884 5885 5886 5887 5887 5888 5888 5888 5888 5888 5888 5888 5887 5887 5886 5885
5845 5846 5847 5848 5849 5850 5851 5853 5854 5854 5856 5858 5859 5860 5862 5862 5864 5866 5867 5868 5871 5872 5874 5876 5877 5879 5880 5881 5882 5883 5884 5885 5885 5886 5886 5886 5886 5886 5886 5886 5886 5885 5884 5884
5845 5846 5847 5847 5848 5849 5851 5852 5853 5853 5854 5856 5857 5857 5860 5861 5862 5863 5865 5866 5868 5870 5872 5873 5875 5876 5877 5878 5879 5880 5881 5882 5883 5883 5884 5884 5884 5884 5884 5884 5883 5883 5882 5881
5844 5845 5846 5847 5848 5848 5849 5851 5852 5853 5853 5854 5855 5856 5858 5858 5859 5860 5862 5864 5866 5868 5869 5871 5872 5873 5875 5876 5877 5878 5879 5880 5880 5881 5881 5881 5882 5882 5882 5881 5881 5880 5880 5879
5843 5844 5845 5846 5847 5848 5848 5849 5850 5851 5851 5852 5853 5854 5855 5856 5857 5859 5860 5862 5863 5865 5866 5868 5869 5871 5872 5873 5874 5875 5876 5877 5878 5878 5878 5879 5879 5879 5879 5879 5878 5877 5877 5876
5843 5844 5844 5844 5846 5847 5848 5848 5849 5849 5850 5850 5851 5852 5854 5854 5856 5857 5858 5860 5861 5862 5864 5865 5866 5868 5869 5870 5871 5872 5873 5874 5875 5875 5875 5876 5876 5876 5876 5875 5875 5874 5874 5873
5842 5843 5844 5844 5844 5845 5846 5847 5847 5848 5848 5850 5850 5853 5852 5853 5854 5855 5857 5858 5859 5860 5861 5863 5864 5865 5866 5867 5868 5869 5870 5871 5872 5872 5872 5873 5873 5873 5873 5872 5872 5871 5870 5870
5841 5842 5842 5843 5844 5844 5844 5845 5846 5847 5847 5848 5848 5853 5850 5851 5852 5853 5855 5856 5857 5858 5859 5860 5861 5862 5863 5864 5865 5866 5867 5868 5869 5869 5869 5869 5869 5869 5869 5869 5868 5867 5867 5866
5839 5840 5841 5842 5844 5844 5843 5843 5844 5845 5845 5846 5846 5850 5848 5848 5849 5851 5852 5853 5854 5855 5856 5857 5858 5859 5860 5861 5862 5863 5864 5865 5865 5865 5866 5866 5865 5865 5865 5865 5864 5863 5863 5862
5838 5839 5840 5841 5841 5841 5842 5842 5842 5843 5843 5844 5845 5846 5846 5846 5847 5848 5850 5851 5851 5852 5853 5855 5856 5857 5858 5859 5859 5860 5861 5861 5861 5862 5862 5862 5861 5861 5861 5860 5860 5859 5858 5858
5836 5837 5838 5838 5839 5839 5840 5840 5840 5841 5842 5843 5843 5843 5844 5844 5845 5846 5847 5848 5849 5849 5850 5852 5853 5853 5854 5855 5856 5856 5857 5857 5857 5858 5858 5858 5857 5857 5857 5856 5855 5855 5854 5853
5834 5835 5835 5836 5836 5837 5837 5838 5839 5839 5840 5840 5841 5842 5841 5842 5843 5843 5844 5845 5846 5846 5847 5848 5849 5850 5851 5851 5852 5852 5853 5853 5853 5853 5854 5853 5853 5853 5852 5852 5851 5850 5849 5848
5831 5832 5833 5834 5834 5834 5836 5837 5837 5837 5838 5838 5838 5840 5839 5839 5840 5841 5841 5842 5842 5843 5844 5844 5845 5846 5847 5848 5848 5848 5848 5848 5849 5849 5849 5849 5849 5848 5848 5847 5846 5845 5844 5843
5828 5829 5830 5831 5832 5832 5836 5834 5834 5835 5835 5835 5835 5836 5836 5837 5837 5838 5838 5839 5839 5840 5840 5841 5841 5842 5843 5844 5844 5844 5844 5845 5845 5845 5845 5844 5844 5843 5843 5842 5841 5840 5839 5838
5824 5825 5826 5827 5827 5829 5831 5831 5831 5832 5832 5832 5832 5833 5833 5833 5834 5834 5835 5835 5836 5836 5836 5837 5838 5838 5839 5840 5840 5840 5840 5840 5840 5840 5840 5839 5839 5838 5837 5836 5836 5835 5834 5833
5820 5821 5822 5823 5823 5825 5828 5828 5828 5829 5829 5830 5830 5830 5830 5830 5831 5832 5831 5831 5832 5832 5832 5833 5833 5834 5834 5835 5835 5835 5836 5835 5835 5835 5835 5834 5833 5833 5832 5831 5830 5829 5828 5827
5815 5816 5817 5818 5819 5821 5824 5823 5824 5826 5827 5826 5826 5826 5827 5827 5828 5828 5827 5828 5828 5828 5828 5828 5828 5829 5830 5830 5830 5830 5830 5830 5830 5830 5829 5828 5827 5827 5826 5825 5824 5823 5821 5820
5809 5811 5813 5814 5815 5819 5819 5819 5821 5822 5821 5821 5821 5822 5822 5823 5823 5823 5823 5823 5823 5823 5823 5824 5824 5824 5824 5825 5825 5825 5825 5825 5824 5824 5823 5822 5821 5820 5819 5818 5817 5816 5814 5813
5804 5807 5808 5810 5812 5813 5813 5814 5815 5816 5816 5817 5817 5817 5818 5818 5818 5818 5818 5818 5818 5818 5818 5819 5819 5819 5819 5819 5819 5819 5819 5818 5818 5818 5817 5816 5815 5814 5813 5811 5810 5809 5807 5806
5798 5800 5802 5803 5805 5807 5808 5808 5809 5810 5810 5811 5811 5812 5812 5812 5812 5812 5813 5813 5813 5813 5813 5813 5813 5813 5813 5813 5813 5813 5812 5812 5811 5811 5810 5809 5808 5807 5805 5804 5803 5801 5800 5798
5792 5794 5795 5797 5799 5800 5801 5802 5803 5804 5804 5805 5806 5806 5806 5806 5806 5807 5807 5807 5807 5807 5807 5807 5807 5807 5807 5806 5806 5806 5805 5805 5804 5803 5803 5802 5800 5799 5798 5796 5795 5793 5792 5790
5786 5788 5789 5791 5793 5794 5795 5796 5796 5797 5798 5798 5799 5799 5800 5800 5800 5800 5800 5800 5800 5800 5800 5801 5800 5800 5800 5800 5799 5799 5798 5797 5797 5796 5795 5794 5792 5791 5790 5788 5786 5784 5783 5781